Terminal Aerodrome Forecast
Issued by NWS Billings, MT

Home | Current Version | Previous Version | Graphics & Text | Print | Product List | Glossary On
Versions: 1 2 3 4 5 6 7 8 9 10 11 12 13 14 15 16 17 18 19 20 21 22 23 24 25 26 27 28 29 30 31 32
000
FTUS45 KBYZ 050941 AAB
TAFMLS
TAF AMD
KMLS 050941Z 0510/0606 30012KT P6SM BKN100
     FM051400 27012KT P6SM SCT030 BKN060
     FM051700 26011KT P6SM SCT010 SCT120
     FM052200 26014G22KT P6SM SKC
     FM060300 25020G35KT P6SM FEW030=

USA.gov is the U.S. government's official web portal to all federal, state and local government web resources and services.